Tracking 19219 objects as of 19-Jul-2018
HD Live streaming from Space Station
objects crossing your sky now

FENGYUN 1C DEB

Track FENGYUN 1C DEB now!
10-day predictions


NORAD ID: 31532
Int'l Code: 1999-025BXX
Perigee: 725.7 km
Apogee: 929.1 km
Inclination: 99.2 °
Period: 101.3 minutes
Semi major axis: 7198 km
RCS: 0.015 m2 (small)
Launch date: May 10, 1999
Source: People's Republic of China (PRC)
Launch site: Taiyaun Space Center, China (TSC)

Note: This is SATELLITE DEBRIS
aabbcc
Your satellite tracking list
Your tracking list is empty




NASA's NSSDC Master Catalog

Two Line Element Set (TLE):
1 31532U 99025BXX 18199.53343617 +.00000837 +00000-0 +36503-3 0  9997
2 31532 099.1823 314.6388 0141297 066.5192 295.0763 14.21505428260961
Source of the keplerian elements: AFSPC